Location: Kaseke
(18.0171°S, 31.0526°E)
Time: 12:25:46
(UTC+00:00)

Cosmos 2227 Rocket - Pass Details

Date: 14 July 2020
Orbit: 839 x 845 km, 71.0° (Epoch: 07 August)

Event Time Altitude Azimuth Distance (km) Brightness Sun altitude
Exits shadow 03:44:46 - 221° (SW) 2,577 4.2 -10.3°
Reaches altitude 10° 03:45:06 10° 223° (SW) 2,470 4.1 -10.3°
Maximum altitude 03:50:00 31° 283° (WNW) 1,448 3.0 -9.2°
Drops below altitude 10° 03:54:53 10° 343° (NNW) 2,453 4.7 -8.1°
Sets 03:57:35 0° 354° (N) 3,382 5.5 -7.5°
